Location: Człuchów
(53.6645°N, 17.3592°E)
Time: 04:39:40
(UTC+01:00)

ISS - Visible Passes

Search period start: 24 November 2017 00:00
Search period end: 04 December 2017 00:00
Orbit: 402 x 407 km, 51.6° (Epoch: 24 November)

Date Brightness Start Highest point End Pass type
(mag) Time Alt. Az. Time Alt. Az. Time Alt. Az.
28 Nov -0.9 18:17:43 10° S 18:17:51 11° S 18:17:51 11° S visible
29 Nov -1.4 17:26:44 10° SSE 17:27:45 11° SE 17:27:45 11° SE visible
30 Nov -1.8 18:08:33 10° SSW 18:10:15 22° S 18:10:15 22° S visible
01 Dec -2.0 17:16:45 10° SSW 17:19:10 19° SSE 17:20:01 17° SE visible
01 Dec -0.8 18:51:59 10° WSW 18:52:40 15° WSW 18:52:40 15° WSW visible
02 Dec -1.4 16:25:23 10° S 16:27:00 13° SE 16:28:37 10° ESE visible
02 Dec -2.8 17:59:45 10° SW 18:02:23 37° S 18:02:23 37° S visible
03 Dec -2.5 17:07:38 10° SW 17:10:33 30° SSE 17:12:04 20° ESE visible
03 Dec -1.2 18:43:28 10° WSW 18:44:42 21° WSW 18:44:42 21° WSW visible
